Datum Uhrzeit Temperatur Luft Windgeschw. Regen Regen (1h) Temp (1h) Luftdruck Windrichtung Taupunkt Sensor
2021-10-16 03:55:00 6.5 82.0 0.0 0.0 0.0 -1.0 SW 0.0 Kombisensor
2021-10-16 03:50:00 6.6 81.0 0.0 0.0 0.0 -1.0 SW 0.0 Kombisensor
2021-10-16 03:45:00 6.7 81.0 0.0 0.0 0.0 -1.0 S 0.0 Kombisensor
2021-10-16 03:40:00 6.8 81.0 0.0 0.0 0.0 -1.0 ONO 0.0 Kombisensor
2021-10-16 03:35:00 6.9 80.0 0.0 0.0 0.0 -1.0 SW 0.0 Kombisensor
2021-10-16 03:30:00 7.1 80.0 0.0 0.0 0.0 -0.8 SW 0.0 Kombisensor
2021-10-16 03:25:00 7.3 79.0 0.0 0.0 0.0 -0.7 SW 0.0 Kombisensor
2021-10-16 03:20:00 7.4 79.0 0.0 0.0 0.0 -0.7 SW 0.0 Kombisensor
2021-10-16 03:15:00 7.4 79.0 0.0 0.0 0.0 -0.8 SW 0.0 Kombisensor
2021-10-16 03:10:00 7.4 79.0 0.0 0.0 0.0 -0.8 WSW 0.0 Kombisensor
2021-10-16 03:05:00 7.4 79.0 0.0 0.0 0.0 -0.9 W 0.0 Kombisensor
2021-10-16 03:00:00 7.4 79.0 0.0 0.0 0.0 -0.9 W 0.0 Kombisensor
2021-10-16 02:55:00 7.5 79.0 0.0 0.0 0.0 -0.8 W 0.0 Kombisensor
2021-10-16 02:50:00 7.6 79.0 5.6 0.0 0.0 -0.7 WSW 0.0 Kombisensor
2021-10-16 02:45:00 7.7 79.0 0.0 0.0 0.0 -0.6 W 0.0 Kombisensor
2021-10-16 02:40:00 7.8 79.0 4.0 0.0 0.0 -0.4 WSW 0.0 Kombisensor
2021-10-16 02:35:00 7.9 79.0 4.9 0.0 0.0 -0.3 WNW 0.0 Kombisensor
2021-10-16 02:30:00 7.9 79.0 6.7 0.0 0.0 -0.3 SSW 0.0 Kombisensor
2021-10-16 02:25:00 8.0 79.0 6.6 0.0 0.0 0.0 SW 0.0 Kombisensor
2021-10-16 02:20:00 8.1 79.0 5.7 0.0 0.0 0.2 SW 0.0 Kombisensor
2021-10-16 02:15:00 8.2 79.0 5.3 0.0 0.0 0.3 SSW 0.0 Kombisensor
2021-10-16 02:10:00 8.2 79.0 0.0 0.0 0.0 0.3 SSW 0.0 Kombisensor
2021-10-16 02:05:00 8.3 79.0 4.0 0.0 0.0 0.3 SSW 0.0 Kombisensor
2021-10-16 02:00:00 8.3 79.0 0.0 0.0 0.0 0.2 WSW 0.0 Kombisensor
2021-10-16 01:55:00 8.3 79.0 5.1 0.0 0.0 0.2 SW 0.0 Kombisensor
2021-10-16 01:50:00 8.3 78.0 6.0 0.0 0.0 0.2 WSW 0.0 Kombisensor
2021-10-16 01:45:00 8.3 78.0 6.8 0.0 0.0 0.1 SW 0.0 Kombisensor
2021-10-16 01:40:00 8.2 79.0 6.5 0.0 0.0 0.1 WSW 0.0 Kombisensor
2021-10-16 01:35:00 8.2 79.0 6.8 0.0 0.0 0.2 WSW 0.0 Kombisensor
2021-10-16 01:30:00 8.2 79.0 6.8 0.0 0.0 0.3 SW 0.0 Kombisensor
2021-10-16 01:25:00 8.0 80.0 0.0 0.0 0.0 0.1 SW 0.0 Kombisensor
2021-10-16 01:20:00 7.9 80.0 5.7 0.0 0.0 0.0 SW 0.0 Kombisensor
2021-10-16 01:15:00 7.9 80.0 4.4 0.0 0.0 0.1 SW 0.0 Kombisensor
2021-10-16 01:10:00 7.9 80.0 0.0 0.0 0.0 0.2 WSW 0.0 Kombisensor
2021-10-16 01:05:00 8.0 80.0 0.0 0.0 0.0 0.3 SW 0.0 Kombisensor
2021-10-16 01:00:00 8.1 79.0 0.0 0.0 0.0 0.5 SSW 0.0 Kombisensor
2021-10-16 00:55:00 8.1 78.0 5.2 0.0 0.0 0.0 SW 0.0 Kombisensor
2021-10-16 00:50:00 8.1 78.0 6.0 0.0 0.0 -0.1 SSW 0.0 Kombisensor
2021-10-16 00:45:00 8.2 78.0 7.0 0.0 0.0 0.1 SSW 0.0 Kombisensor
2021-10-16 00:40:00 8.1 78.0 8.5 0.0 0.0 0.1 SW 0.0 Kombisensor
2021-10-16 00:35:00 8.0 79.0 7.7 0.0 0.0 0.1 SSW 0.0 Kombisensor
2021-10-16 00:30:00 7.9 79.0 0.0 0.0 0.0 0.0 SSW 0.0 Kombisensor
2021-10-16 00:25:00 7.9 79.0 0.0 0.0 0.0 0.0 WNW 0.0 Kombisensor
2021-10-16 00:20:00 7.9 79.0 4.6 0.0 0.0 0.1 SW 0.0 Kombisensor
2021-10-16 00:15:00 7.8 79.0 6.4 0.0 0.0 0.1 SW 0.0 Kombisensor
2021-10-16 00:10:00 7.7 79.0 0.0 0.0 0.0 0.0 WSW 0.0 Kombisensor
2021-10-16 00:05:00 7.7 80.0 5.0 0.0 0.0 0.1 SW 0.0 Kombisensor
2021-10-16 00:00:00 7.6 80.0 8.0 0.0 0.0 0.9 WSW 0.0 Kombisensor